Albuquerque, NM

1:55 PM MDT on April 29, 2017 (GMT -0600)
Albuquerque International Sunport

Weather History for KABQ - January, 2011

Change the Weather History Date:

Friday, January 21, 2011

  Actual Average Record
Temperature  
Mean Temperature 40 °F 37 °F  
Max Temperature 51 °F 47 °F 68 °F (1971)
Min Temperature 29 °F 26 °F -2 °F (1918)
Degree Days  
Heating Degree Days 25 28  
Month to date heating degree days 619 610  
Since 1 July heating degree days 2091 2367  
Cooling Degree Days 0 0  
Month to date cooling degree days 0 0  
Year to date cooling degree days 0 0  
Moisture  
Dew Point 12 °F    
Average Humidity 35    
Maximum Humidity 49    
Minimum Humidity 21    
Precipitation  
Precipitation 0.00 in 0.02 in 0.22 in (1916)
Month to date precipitation T 0.26  
Year to date precipitation T 0.26  
Snow  
Snow 0.00 in - - ()
Month to date snowfall T  
Since 1 July snowfall 2.0  
Snow Depth 0.00 in    
Sea Level Pressure  
Sea Level Pressure 30.10 in    
Wind  
Wind Speed 10 mph (NNW)    
Max Wind Speed 24 mph    
Max Gust Speed 33 mph    
Visibility 10 miles    
Events      
T = Trace of Precipitation, MM = Missing Value Source: NWS Daily Summary

Daily Weather History Graph

Daily Weather History Graph

Search for Another Location

Airport or City:

Trip Planner

Search our weather history database for the weather conditions in past years. The results will help you decide how hot, cold, wet, or windy it might be!

Date:

Astronomy

Jan. 21, 2011 Rise Set
Actual Time 7:12 AM MST 5:23 PM MST
Civil Twilight 6:44 AM MST 5:51 PM MST
Nautical Twilight 6:13 AM MST 6:21 PM MST
Astronomical Twilight 5:43 AM MST 6:52 PM MST
Moon 7:55 PM MST (1/21) 8:13 AM MST (1/21)
Length of Visible Light 11h 06m
Length of Day
10h 11m
Waning Gibbous, 95% of the Moon is Illuminated
Jan 21
Waning Gibbous
Jan 26
Last Quarter
Feb 2
New
Feb 11
First Quarter
Feb 18
Full

Hourly Weather History & Observations

Time (MST) Temp. Windchill Dew Point Humidity Pressure Visibility Wind Dir Wind Speed Gust Speed Precip Events Conditions
12:56 AM 34.0 °F 26.6 °F 9.0 °F 35% 30.12 in 10.0 mi North 9.2 mph - N/A   Mostly Cloudy
1:56 AM 33.1 °F 26.9 °F 10.0 °F 38% 30.12 in 10.0 mi NNE 6.9 mph - N/A   Mostly Cloudy
2:56 AM 33.1 °F 26.1 °F 9.0 °F 37% 30.10 in 10.0 mi NNW 8.1 mph - N/A   Mostly Cloudy
3:56 AM 28.9 °F 25.2 °F 9.0 °F 43% 30.10 in 10.0 mi WNW 3.5 mph - N/A   Scattered Clouds
4:56 AM 30.0 °F 25.2 °F 9.0 °F 41% 30.07 in 10.0 mi NW 4.6 mph - N/A   Scattered Clouds
5:56 AM 32.0 °F 25.6 °F 9.0 °F 38% 30.08 in 10.0 mi NW 6.9 mph - N/A   Partly Cloudy
6:56 AM 34.0 °F 24.6 °F 9.0 °F 35% 30.10 in 10.0 mi North 13.8 mph - N/A   Partly Cloudy
7:56 AM 34.0 °F 25.5 °F 8.1 °F 34% 30.12 in 10.0 mi NNW 11.5 mph 19.6 mph N/A   Scattered Clouds
8:56 AM 37.0 °F 26.4 °F 7.0 °F 29% 30.13 in 10.0 mi North 20.7 mph - N/A   Scattered Clouds
9:56 AM 39.9 °F 30.8 °F 6.1 °F 25% 30.13 in 10.0 mi North 18.4 mph 28.8 mph N/A   Mostly Cloudy
10:56 AM 42.1 °F 34.2 °F 7.0 °F 24% 30.12 in 10.0 mi NNW 16.1 mph - N/A   Scattered Clouds
11:56 AM 46.0 °F 39.9 °F 9.0 °F 22% 30.09 in 10.0 mi NW 13.8 mph 19.6 mph N/A   Mostly Cloudy
12:56 PM 48.0 °F - 12.0 °F 24% 30.06 in 10.0 mi NW 15.0 mph - N/A   Scattered Clouds
1:56 PM 50.0 °F - 12.9 °F 23% 30.04 in 10.0 mi NW 15.0 mph 24.2 mph N/A   Scattered Clouds
2:56 PM 51.1 °F - 14.0 °F 23% 30.04 in 10.0 mi NW 17.3 mph 24.2 mph N/A   Scattered Clouds
3:56 PM 51.1 °F - 14.0 °F 23% 30.06 in 10.0 mi NNW 11.5 mph 21.9 mph N/A   Partly Cloudy
4:56 PM 48.9 °F - 15.1 °F 26% 30.07 in 10.0 mi North 10.4 mph - N/A   Partly Cloudy
5:56 PM 46.9 °F - 16.0 °F 29% 30.08 in 10.0 mi North 6.9 mph - N/A   Partly Cloudy
6:56 PM 45.0 °F 40.6 °F 16.0 °F 31% 30.09 in 10.0 mi North 8.1 mph - N/A   Partly Cloudy
7:56 PM 36.0 °F - 16.0 °F 44% 30.13 in 10.0 mi Calm Calm - N/A   Clear
8:56 PM 34.0 °F - 16.0 °F 48% 30.13 in 10.0 mi Calm Calm - N/A   Clear
9:56 PM 32.0 °F 28.7 °F 15.1 °F 50% 30.12 in 10.0 mi SSE 3.5 mph - N/A   Clear
10:56 PM 37.9 °F 32.7 °F 16.0 °F 41% 30.10 in 10.0 mi NNW 6.9 mph - N/A   Clear
11:56 PM 36.0 °F 29.0 °F 16.0 °F 44% 30.08 in 10.0 mi North 9.2 mph - N/A   Clear